Skovde current weather conditions

sailwx.info

Wind from 360 at 6 knots

Air temperature 2.0° C
Visibility: greater than 5.4 NM
Dewpoint -0.0° C

Last reported at 2018-Dec-11 15:50 UTC.
Time now 2018-Dec-11 16:51 UTC

Location: N 58°27' E 013°58'.
View on Google Maps.

See reports from other nearby stations

  
Tides and Currents Weather Stations Pressure Air Temp Water Temp Dewpoint Dewpoint Depression Visibility Wind Speed Wind Dir Waves Ship Positions
date/time (UTC)wind fromknots sea level pressurealtimeterstation pressurevisibilityair tempwater tempwave heightnotes
2018-Dec-11 15:50 360 6 5.4 2.0
2018-Dec-11 15:20 360 6 5.4 2.0
2018-Dec-11 14:50 350 7 5.4 2.0
2018-Dec-11 14:20 340 7 5.4 2.0
2018-Dec-11 13:50 350 7 5.4 2.0
2018-Dec-11 13:20 360 7 5.4 2.0
2018-Dec-11 12:50 360 6 5.4 2.0
2018-Dec-11 12:20 360 8 5.4 2.0
2018-Dec-11 11:50 360 8 5.4 2.0
2018-Dec-11 11:20 360 8 5.4 2.0 Precipitation.
2018-Dec-11 10:50 010 9 5.4 2.0 Light drizzle.
2018-Dec-11 10:20 350 7 5.4 2.0
2018-Dec-11 09:50 350 7 5.4 2.0
2018-Dec-11 09:20 350 8 5.4 2.0
2018-Dec-11 08:50 360 7 5.4 2.0
2018-Dec-11 08:20 360 7 5.4 2.0
2018-Dec-11 07:50 350 7 5.4 2.0
2018-Dec-11 07:20 010 6 5.4 2.0
2018-Dec-11 06:50 360 8 5.4 2.0
2018-Dec-11 06:20 350 8 5.4 2.0
2018-Dec-11 05:50 360 7 5.4 2.0
2018-Dec-11 05:20 350 7 5.4 2.0
2018-Dec-11 04:50 350 8 5.4 2.0
2018-Dec-11 04:20 350 9 5.4 2.0 Light rain.
2018-Dec-11 03:50 360 9 5.4 2.0
2018-Dec-11 03:20 360 8 5.4 2.0 Precipitation.
2018-Dec-11 02:50 350 8 5.4 2.0
2018-Dec-11 02:20 350 8 5.4 2.0
2018-Dec-11 01:50 340 8 5.4 2.0
2018-Dec-11 01:20 350 7 5.4 2.0
2018-Dec-11 00:50 350 7 5.4 2.0 Light rain.
2018-Dec-11 00:20 350 7 5.4 2.0 Light rain.
2018-Dec-10 23:50 340 8 5.4 2.0 Drizzle.
2018-Dec-10 23:20 340 7 5.4 2.0
2018-Dec-10 22:50 340 7 5.4 2.0
2018-Dec-10 22:20 340 7 5.4 2.0
2018-Dec-10 21:50 350 8 5.4 2.0
2018-Dec-10 21:20 350 9 5.4 2.0
2018-Dec-10 20:50 350 9 5.4 2.0
2018-Dec-10 20:20 350 11 4.9 2.0 Mist.
2018-Dec-10 19:50 350 9 4.3 3.0 Drizzle.
2018-Dec-10 19:20 350 11 5.4 2.0
2018-Dec-10 18:50 360 11 5.4 2.0 Precipitation.
2018-Dec-10 18:20 350 11 4.3 1.0 Drizzle.
2018-Dec-10 17:50 350 11 4.3 2.0 Light rain.
2018-Dec-10 17:20 340 8 2.7 1.0 Light rain.
2018-Dec-10 16:50 340 7 3.2 1.0 Light rain snow.
2018-Dec-10 16:20 330 6 3.8 1.0 Light rain snow.
2018-Dec-10 15:50 330 8 1.5 1.0 Light snow.
2018-Dec-10 15:20 340 8 5.4 1.0 Light rain.
2018-Dec-10 14:50 330 7 3.2 1.0 Light rain.
2018-Dec-10 14:20 340 7 2.7 1.0 Light drizzle snow.
2018-Dec-10 13:50 330 6 2.7 1.0 Light drizzle snow.
2018-Dec-10 13:20 330 6 5.4 1.0 Light drizzle.
2018-Dec-10 12:50 330 7 2.1 1.0 Light snow.
2018-Dec-10 12:20 330 8 3.8 2.0 Light rain.
2018-Dec-10 11:50 320 9 5.4 3.0
2018-Dec-10 11:20 310 7 5.4 3.0
2018-Dec-10 10:50 310 6 5.4 3.0
2018-Dec-10 10:20 280 6 5.4 2.0
2018-Dec-10 09:50 290 6 5.4 2.0
2018-Dec-10 09:20 270 5 5.4 2.0
2018-Dec-10 08:50 280 5 5.4 2.0
2018-Dec-10 08:20 270 5 5.4 2.0
2018-Dec-10 07:50 280 5 5.4 2.0 Snow grains.
2018-Dec-10 07:20 270 5 5.4 2.0 Light rain.
2018-Dec-10 06:50 280 6 5.4 1.0